Location: Howell Woods
(35.3600°N, 78.2900°W)
Time: 11:18:29
(UTC-05:00)

Tiangong - Visible Passes

Search period start: 03 December 2021 00:00
Search period end: 13 December 2021 00:00
Orbit: 380 x 384 km, 41.5° (Epoch: 02 December)

Date Brightness Start Highest point End Pass type
(mag) Time Alt. Az. Time Alt. Az. Time Alt. Az.
05 Dec 3.0 18:24:43 10° S 18:26:50 18° SSE 18:26:50 18° SSE visible
06 Dec 3.0 18:59:58 10° SW 19:01:39 28° SW 19:01:39 28° SW visible
07 Dec 2.1 17:59:48 10° SW 18:02:41 34° SSE 18:04:12 21° E visible
08 Dec 1.1 18:35:44 10° WSW 18:38:51 69° NNW 18:38:51 69° NNW visible
09 Dec 1.2 17:35:14 10° SW 17:38:21 65° SSE 17:41:16 12° ENE visible
09 Dec 3.8 19:12:24 10° WNW 19:13:26 17° WNW 19:13:26 17° WNW visible
10 Dec 1.7 18:11:36 10° W 18:14:38 44° NNW 18:15:48 29° NE visible
11 Dec 3.0 18:48:20 10° WNW 18:50:16 24° NNW 18:50:16 24° NNW visible
12 Dec 2.2 17:47:27 10° WNW 17:50:20 32° NNW 17:52:34 15° NE visible
